Oscoda, MI

3:15 AM EST on December 03, 2016 (GMT -0500)
Oscoda-Wurtsmith

Weather History for KOSC - January, 2013

Change the Weather History Date:

Friday, January 11, 2013

  Actual Average Record
Temperature  
Mean Temperature 40 °F -  
Max Temperature 47 °F 25 °F 48 °F (2012)
Min Temperature 34 °F 12 °F -11 °F (1999)
Degree Days  
Heating Degree Days 24    
Moisture  
Dew Point 38 °F    
Average Humidity 94    
Maximum Humidity 98    
Minimum Humidity 78    
Precipitation  
Precipitation 0.40 in - - ()
Sea Level Pressure  
Sea Level Pressure 29.84 in    
Wind  
Wind Speed 9 mph (South)    
Max Wind Speed 17 mph    
Max Gust Speed 25 mph    
Visibility 5 miles    
Events Fog , Rain    
Averages and records for this station are not official NWS values.
T = Trace of Precipitation, MM = Missing Value Source: NWS Daily Summary

Daily Weather History Graph

Daily Weather History Graph

Search for Another Location

Airport or City:

Trip Planner

Search our weather history database for the weather conditions in past years. The results will help you decide how hot, cold, wet, or windy it might be!

Date:

Astronomy

Jan. 11, 2013 Rise Set
Actual Time 8:08 AM EST 5:15 PM EST
Civil Twilight 7:35 AM EST 5:48 PM EST
Nautical Twilight 6:59 AM EST 6:24 PM EST
Astronomical Twilight 6:24 AM EST 6:59 PM EST
Moon 7:38 AM EST (1/11) 5:34 PM EST (1/11)
Length of Visible Light 10h 12m
Length of Day
9h 07m
Waning Crescent, 0% of the Moon is Illuminated
Jan 11
Waning Crescent
Jan 11
New
Jan 18
First Quarter
Jan 26
Full
Feb 3
Last Quarter

Hourly Weather History & Observations

Time (EST) Temp. Windchill Dew Point Humidity Pressure Visibility Wind Dir Wind Speed Gust Speed Precip Events Conditions
12:13 AM 36.0 °F 29.0 °F 29.8 °F 78% 30.19 in 10.0 mi SSE 9.2 mph - N/A   Overcast
12:34 AM 35.8 °F 28.8 °F 30.4 °F 81% 30.18 in 10.0 mi SSE 9.2 mph - N/A Rain Light Rain
12:54 AM 35.6 °F 28.0 °F 30.7 °F 82% 30.17 in 10.0 mi SSE 10.4 mph - N/A Rain Light Rain
1:13 AM 35.2 °F 28.1 °F 31.1 °F 85% 30.15 in 10.0 mi SSE 9.2 mph 17.3 mph N/A Rain Light Rain
1:34 AM 35.1 °F 27.9 °F 31.8 °F 88% 30.13 in 10.0 mi SE 9.2 mph - N/A Rain Light Rain
1:54 AM 34.9 °F 28.3 °F 32.0 °F 89% 30.13 in 7.0 mi SE 8.1 mph - 0.01 in Rain Light Rain
2:13 AM 34.7 °F 26.9 °F 32.2 °F 91% 30.12 in 3.0 mi SE 10.4 mph - 0.04 in Rain Rain
2:34 AM 34.3 °F 25.9 °F 32.4 °F 92% 30.11 in 2.5 mi SSE 11.5 mph - 0.12 in Rain Rain
2:54 AM 34.3 °F 27.7 °F 32.7 °F 94% 30.09 in 2.5 mi SE 8.1 mph - 0.19 in Rain Heavy Rain
3:13 AM 34.7 °F 27.5 °F 32.9 °F 93% 30.06 in 3.0 mi SE 9.2 mph 16.1 mph 0.02 in Rain Rain
3:34 AM 34.7 °F 26.4 °F 32.9 °F 93% 30.07 in 3.0 mi SSE 11.5 mph 17.3 mph 0.06 in Rain Rain
3:54 AM 34.5 °F 27.3 °F 32.9 °F 94% 30.04 in 4.0 mi SSE 9.2 mph 16.1 mph 0.09 in Rain Light Rain
4:13 AM 34.7 °F 26.4 °F 33.1 °F 94% 30.01 in 5.0 mi SE 11.5 mph 18.4 mph 0.01 in Rain Light Rain
4:34 AM 34.7 °F 27.5 °F 33.1 °F 94% 29.99 in 4.0 mi SSE 9.2 mph - 0.06 in Rain Rain
4:54 AM 34.7 °F 27.5 °F 33.3 °F 94% 29.97 in 5.0 mi SSE 9.2 mph 16.1 mph 0.08 in Rain Light Rain
5:13 AM 34.9 °F 27.1 °F 33.3 °F 94% 29.96 in 5.0 mi SSE 10.4 mph - N/A Rain Light Rain
5:34 AM 35.1 °F 26.4 °F 33.4 °F 94% 29.94 in 5.0 mi SSE 12.7 mph - 0.01 in Rain Light Rain
5:54 AM 35.2 °F 27.6 °F 33.8 °F 94% 29.92 in 5.0 mi SE 10.4 mph - 0.02 in Rain Light Rain
6:13 AM 35.6 °F 28.6 °F 34.2 °F 94% 29.91 in 5.0 mi SSE 9.2 mph - N/A Rain Light Rain
6:34 AM 35.6 °F 29.2 °F 34.2 °F 94% 29.90 in 7.0 mi SSE 8.1 mph - 0.01 in Rain Light Rain
6:54 AM 35.6 °F 28.6 °F 34.3 °F 95% 29.89 in 7.0 mi SSE 9.2 mph - 0.01 in   Drizzle
7:13 AM 35.8 °F 28.3 °F 34.7 °F 96% 29.88 in 7.0 mi SSE 10.4 mph - N/A   Drizzle
7:34 AM 36.0 °F 29.6 °F 34.9 °F 96% 29.87 in 7.0 mi SSE 8.1 mph - N/A Rain Rain
7:54 AM 36.5 °F 31.8 °F 35.1 °F 95% 29.86 in 7.0 mi SSE 5.8 mph - N/A   Drizzle
8:13 AM 36.5 °F 31.0 °F 35.1 °F 95% 29.85 in 7.0 mi South 6.9 mph - N/A   Light Drizzle
8:34 AM 36.5 °F 31.8 °F 35.1 °F 95% 29.84 in 5.0 mi SSE 5.8 mph - N/A   Overcast
8:54 AM 36.5 °F 31.8 °F 35.2 °F 95% 29.83 in 7.0 mi SSE 5.8 mph - N/A   Overcast
9:14 AM 36.7 °F 30.5 °F 35.2 °F 95% 29.81 in 7.0 mi SSE 8.1 mph - N/A   Light Drizzle
9:34 AM 36.9 °F 30.7 °F 35.2 °F 94% 29.79 in 7.0 mi SSE 8.1 mph - N/A   Overcast
9:53 AM 37.4 °F 32.8 °F 35.6 °F 93% 29.77 in 7.0 mi SSE 5.8 mph - N/A   Overcast
10:14 AM 37.6 °F 33.1 °F 36.1 °F 95% 29.77 in 7.0 mi SSE 5.8 mph - N/A   Drizzle
10:34 AM 37.6 °F 32.3 °F 36.1 °F 95% 29.77 in 5.0 mi SSE 6.9 mph - N/A   Drizzle
10:53 AM 38.3 °F 31.9 °F 36.7 °F 94% 29.78 in 7.0 mi South 9.2 mph - N/A   Overcast
11:14 AM 38.5 °F 32.7 °F 36.7 °F 93% 29.77 in 10.0 mi South 8.1 mph - N/A   Overcast
11:34 AM 38.3 °F 33.9 °F 36.7 °F 94% 29.75 in 7.0 mi South 5.8 mph - N/A   Overcast
11:53 AM 38.8 °F 32.6 °F 37.4 °F 95% 29.74 in 5.0 mi South 9.2 mph - N/A   Overcast
12:14 PM 39.2 °F 33.0 °F 37.9 °F 95% 29.73 in 2.5 mi South 9.2 mph - N/A   Drizzle
12:34 PM 39.4 °F 34.5 °F 38.3 °F 96% 29.71 in 1.5 mi South 6.9 mph - N/A   Heavy Drizzle
12:53 PM 39.9 °F 35.1 °F 38.8 °F 96% 29.70 in 2.0 mi South 6.9 mph - N/A   Light Drizzle
1:14 PM 40.3 °F 34.4 °F 39.4 °F 97% 29.69 in 1.5 mi South 9.2 mph - N/A   Light Drizzle
1:34 PM 41.0 °F 35.2 °F 40.1 °F 97% 29.69 in 0.8 mi South 9.2 mph - N/A   Overcast
1:53 PM 41.0 °F 35.2 °F 40.1 °F 97% 29.69 in 0.8 mi South 9.2 mph - N/A   Overcast
2:14 PM 41.9 °F 36.9 °F 41.0 °F 97% 29.69 in 0.5 mi SSW 8.1 mph - N/A Rain Light Rain
2:34 PM 42.3 °F 37.3 °F 41.5 °F 97% 29.68 in 0.5 mi SSW 8.1 mph - N/A   Overcast
2:53 PM 43.0 °F 38.2 °F 42.3 °F 97% 29.68 in 0.8 mi SSW 8.1 mph - N/A   Overcast
3:14 PM 43.7 °F 38.6 °F 42.8 °F 97% 29.69 in 0.8 mi SSW 9.2 mph - N/A   Overcast
3:34 PM 43.7 °F 39.1 °F 43.0 °F 97% 29.69 in 0.8 mi SSW 8.1 mph - N/A   Overcast
3:53 PM 43.7 °F 39.1 °F 43.0 °F 97% 29.70 in 0.5 mi SW 8.1 mph - N/A Fog Fog
4:14 PM 43.7 °F 39.7 °F 43.0 °F 97% 29.70 in 0.5 mi SW 6.9 mph - N/A Fog Fog
4:34 PM 43.9 °F 38.8 °F 43.2 °F 97% 29.71 in 0.5 mi SSW 9.2 mph - N/A Fog Fog
4:53 PM 44.4 °F 40.0 °F 43.7 °F 97% 29.70 in 0.2 mi SSW 8.1 mph - N/A Fog Fog
5:14 PM 44.2 °F 40.3 °F 43.7 °F 98% 29.71 in 0.2 mi SW 6.9 mph - N/A Fog Fog
5:34 PM 44.4 °F 40.5 °F 43.7 °F 97% 29.72 in 0.5 mi SW 6.9 mph - N/A Fog Fog
5:53 PM 44.2 °F 39.2 °F 43.7 °F 98% 29.72 in 0.5 mi SSW 9.2 mph - N/A Fog Fog
6:14 PM 44.6 °F 39.7 °F 44.1 °F 98% 29.72 in 0.5 mi SSW 9.2 mph - N/A Fog Fog
6:34 PM 44.8 °F 40.4 °F 44.2 °F 98% 29.73 in 0.8 mi SW 8.1 mph - N/A   Overcast
6:54 PM 45.5 °F 40.3 °F 45.0 °F 98% 29.73 in 1.8 mi SW 10.4 mph - N/A   Overcast
7:14 PM 46.6 °F - 45.9 °F 97% 29.74 in 4.0 mi SW 15.0 mph - N/A   Overcast
7:33 PM 47.3 °F - 46.6 °F 97% 29.74 in 7.0 mi SW 17.3 mph 25.3 mph N/A   Overcast
7:54 PM 46.8 °F - 46.2 °F 98% 29.75 in 10.0 mi SW 16.1 mph - N/A   Overcast
8:14 PM 46.6 °F - 45.1 °F 95% 29.76 in 10.0 mi SW 12.7 mph - N/A   Overcast
8:33 PM 46.4 °F 40.4 °F 44.6 °F 93% 29.76 in 10.0 mi SW 13.8 mph 19.6 mph N/A   Overcast
8:54 PM 46.0 °F 39.9 °F 44.2 °F 93% 29.77 in 10.0 mi SW 13.8 mph - N/A   Overcast
9:14 PM 45.7 °F 40.2 °F 43.7 °F 93% 29.77 in 10.0 mi WSW 11.5 mph 16.1 mph N/A   Overcast
9:34 PM 45.5 °F 40.3 °F 43.7 °F 93% 29.77 in 10.0 mi SW 10.4 mph - N/A   Overcast
9:54 PM 45.1 °F 39.5 °F 43.7 °F 95% 29.78 in 10.0 mi SW 11.5 mph - N/A   Overcast
10:14 PM 45.0 °F 40.6 °F 43.7 °F 95% 29.78 in 10.0 mi SW 8.1 mph - N/A   Overcast
10:34 PM 45.1 °F 42.8 °F 43.7 °F 95% 29.76 in 10.0 mi South 4.6 mph - N/A   Overcast
10:54 PM 45.1 °F 40.8 °F 43.7 °F 95% 29.76 in 7.0 mi South 8.1 mph - N/A   Overcast
11:13 PM 45.3 °F 39.7 °F 43.9 °F 95% 29.77 in 7.0 mi SSW 11.5 mph 18.4 mph N/A   Overcast
11:34 PM 45.1 °F 40.8 °F 43.7 °F 95% 29.77 in 7.0 mi SSW 8.1 mph - N/A   Overcast
11:54 PM 45.5 °F 41.8 °F 43.9 °F 94% 29.77 in 7.0 mi SSW 6.9 mph - N/A   Overcast